Location: Caualo
(45.5667°N, 10.8667°E)
Time: 20:11:48
(UTC+00:00)

Meteor 1-28 Rocket - Pass Details

Date: 07 June 2020
Orbit: 503 x 523 km, 97.3° (Epoch: 05 July)

Event Time Altitude Azimuth Distance (km) Brightness Sun altitude
Exits shadow 02:40:32 - 185° (S) 2,400 6.1 -7.3°
Reaches altitude 10° 02:42:11 10° 191° (SSW) 1,737 5.4 -7.1°
Maximum altitude 02:45:42 39° 262° (W) 778 3.7 -6.6°
Drops below altitude 10° 02:49:15 10° 333° (NNW) 1,741 6.1 -6.2°
Sets 02:51:27 0° 341° (NNW) 2,629 7.1 -5.9°
